User: anonymous   Login
Location: Ottawa
(45.4170°N, 75.7000°W)
Time: 11:07:45
(UTC-04:00)
Language:

Aureole 3 Rocket - Orbit

View from above orbital plane
View from above orbital plane
View from above satellite
View from above satellite

Ground track
Ground track

The orbit data is extracted from the following two-line orbital elements,

1 12849U 81094B   14295.25619450  .00002085  00000-0  19210-3 0   227
2 12849 082.4953 189.5455 0911805 137.7584 229.7606 13.48370066611247
Epoch (UTC): 22 October 2014 06:08:55
Eccentricity: 0.0911805
inclination: 82.4953°
perigee height: 398 km
apogee height: 1758 km
right ascension of ascending node: 189.5455°
argument of perigee: 137.7584°
revolutions per day: 13.48370066
mean anomaly at epoch: 229.7606°
orbit number at epoch: 61124

The dashed part of the orbit path shows where the satellite is in the earth's shadow,  

DLR